Stations météo

réclame
Mon MeteoGroup
Saarbrücken-Ensheim, Allemagne (10708): Température de l'air & dewpoint: 19.11.2017 02:00:00 - 25.11.2017 02:00:00 (CET)Saarbrücken-Ensheim, Allemagne (10708): Température de l'air 5cm & Température de l'air -5cm: 19.11.2017 02:00:00 - 25.11.2017 02:00:00 (CET)Saarbrücken-Ensheim, Allemagne (10708): Température de l'air -20cm & Température de l'air -100cm: 19.11.2017 02:00:00 - 25.11.2017 02:00:00 (CET)Saarbrücken-Ensheim, Allemagne (10708): Vitesse du vent & gusts: 19.11.2017 02:00:00 - 25.11.2017 02:00:00 (CET)Saarbrücken-Ensheim, Allemagne (10708): Direction du vent: 19.11.2017 02:00:00 - 25.11.2017 02:00:00 (CET)Saarbrücken-Ensheim, Allemagne (10708): reduced air pressure: 19.11.2017 02:00:00 - 25.11.2017 02:00:00 (CET)Saarbrücken-Ensheim, Allemagne (10708): visibility: 19.11.2017 02:00:00 - 25.11.2017 02:00:00 (CET)Saarbrücken-Ensheim, Allemagne (10708): Ensoleillement: 19.11.2017 02:00:00 - 25.11.2017 02:00:00 (CET)Saarbrücken-Ensheim, Allemagne (10708): Quantités de précipitations: 19.11.2017 02:00:00 - 25.11.2017 02:00:00 (CET)
Date & Time tt [°C] td [°C] tt 5cm [°C] tt -5cm [°C] tt -20cm [°C] tt -100cm [°C] ff [km/h] ff [knt] fx [km/h] fx [knt] dd ppp [hPa] vv [km] sd [min] rr [mm]
25.11.2017 02:00:00 8,7 8,1 8,5 8,4 8,4 9,2 13 7 22 12 SW 1010,8 10 0 1,6
25.11.2017 01:00:00 9,0 8,5 8,6 8,5 8,4 9,2 13 7 22 12 SSW 1011,3 9 0 1,6
25.11.2017 00:00:00 9,1 8,5 8,7 8,6 8,4 9,1 16 9 31 17 SW 1012,2 10 0 0,9
24.11.2017 23:00:00 9,2 8,7 8,9 8,7 8,4 9,1 13 7 25 14 SW 1012,5 5 0 1,8
24.11.2017 22:00:00 9,4 8,8 9,1 8,7 8,4 9,1 15 8 31 17 SW 1012,8 8 0 0,5
24.11.2017 21:00:00 9,8 8,7 9,2 8,8 8,4 9,1 24 13 41 22 SW 1013,0 10 0 1,4
24.11.2017 20:00:00 10,1 8,6 9,3 8,8 8,4 9,1 24 13 37 20 SW 1012,8 10 0 0,2
24.11.2017 19:00:00 10,5 9,0 9,9 8,9 8,4 9,1 22 12 37 20 SSW 1012,5 10 0 0,0
24.11.2017 18:00:00 10,4 8,8 9,6 8,9 8,4 9,1 22 12 35 19 SSW 1012,4 10 0 0,1
24.11.2017 17:00:00 10,7 8,7 10,2 9,0 8,3 9,1 24 13 38 20 SSW 1012,4 10 0 0,0
24.11.2017 16:00:00 11,0 8,6 10,5 9,2 8,3 9,1 24 13 33 18 SW 1012,6 10 0 0,0
24.11.2017 15:00:00 11,3 8,2 10,7 9,2 8,2 9,1 21 11 35 19 SW 1012,1 10 0 0,0
24.11.2017 14:00:00 11,4 8,0 10,8 9,2 8,1 9,1 22 12 42 23 SW 1012,4 10 0 0,0
24.11.2017 13:00:00 11,7 7,9 11,2 9,1 8,0 9,1 26 14 41 22 SW 1012,2 10 0 0,0
24.11.2017 12:00:00 11,2 7,8 10,0 8,9 7,9 9,1 24 13 41 22 SW 1011,9 10 0 0,1
24.11.2017 11:00:00 10,8 7,7 9,5 8,6 7,9 9,1 26 14 39 21 SW 1012,0 10 0 0,3
24.11.2017 10:00:00 10,5 7,9 9,3 8,2 7,8 9,1 21 11 40 21 SSW 1011,8 10 6 0,5
24.11.2017 09:00:00 10,9 6,9 9,7 8,1 7,8 9,1 28 15 46 25 SSW 1011,3 10 3 0,0
24.11.2017 08:00:00 10,9 7,0 9,8 8,1 7,8 9,1 26 14 41 22 SSW 1011,1 10 0 0,0
24.11.2017 07:00:00 10,7 7,4 9,0 8,1 7,8 9,1 28 15 41 22 SSW 1011,1 10 0 0,2
24.11.2017 06:00:00 11,1 6,9 10,2 8,0 7,8 9,1 28 15 41 22 SSW 1010,9 10 0 0,0
24.11.2017 05:00:00 11,1 6,9 10,2 8,0 7,8 9,1 28 15 46 25 SSW 1011,2 10 0 0,0
24.11.2017 04:00:00 10,9 6,9 9,5 8,2 7,8 9,1 26 14 41 22 SSW 1011,7 10 0 0,0
24.11.2017 03:00:00 11,2 7,2 9,8 8,3 7,8 9,1 21 11 40 21 SSW 1012,4 10 0 0,0
24.11.2017 02:00:00 11,6 6,8 10,4 8,3 7,8 9,1 26 14 40 22 SSW 1012,6 10 0 0,0
24.11.2017 01:00:00 11,8 6,8 10,9 8,4 7,8 9,1 26 14 40 21 SSW 1012,9 10 0 0,0
24.11.2017 00:00:00 12,1 6,8 11,3 8,5 7,8 9,1 26 14 46 25 SSW 1013,0 10 0 0,0
23.11.2017 23:00:00 12,6 6,9 11,7 8,5 7,7 9,1 29 16 43 23 SSW 1012,8 10 0 0,0
23.11.2017 22:00:00 12,7 7,1 11,7 8,6 7,7 9,1 26 14 41 22 SSW 1012,6 10 0 0,0
23.11.2017 21:00:00 13,0 7,2 11,9 8,5 7,6 9,1 29 16 49 26 SW 1012,3 10 0 0,0
23.11.2017 20:00:00 12,9 7,1 11,0 8,7 7,6 9,1 29 16 49 26 SSW 1011,9 10 0 0,0
23.11.2017 19:00:00 13,7 7,0 12,5 8,7 7,5 9,1 31 17 51 28 SW 1011,5 10 0 0,0
23.11.2017 18:00:00 13,7 7,1 12,5 8,8 7,5 9,1 28 15 42 23 SW 1010,7 10 0 0,0
23.11.2017 17:00:00 13,8 7,1 12,6 9,0 7,3 9,1 26 14 36 19 SW 1010,4 10 0 0,0
23.11.2017 16:00:00 14,2 7,0 13,2 9,1 7,2 9,1 24 13 41 22 SW 1009,8 10 0 0,0
23.11.2017 15:00:00 14,2 6,6 13,3 9,4 6,9 9,1 28 15 51 28 SW 1009,5 10 8 0,0
23.11.2017 14:00:00 14,5 6,5 14,3 9,1 6,6 9,1 35 19 57 31 SW 1009,4 10 10 0,0
23.11.2017 13:00:00 14,0 6,3 13,9 8,4 6,3 9,1 34 18 54 29 SW 1009,3 10 9 0,0
23.11.2017 12:00:00 12,8 5,9 12,4 7,6 6,1 9,1 31 17 47 25 SSW 1009,3 10 1 0,0
23.11.2017 11:00:00 12,3 5,6 12,5 6,6 5,9 9,1 28 15 54 29 SSW 1009,4 10 1 0,0
23.11.2017 10:00:00 11,5 5,0 10,5 6,0 5,8 9,1 26 14 42 23 SSW 1009,3 10 0 0,0
23.11.2017 09:00:00 10,5 4,9 9,6 5,5 5,7 9,2 29 16 53 28 SSW 1008,7 10 0 0,0
23.11.2017 08:00:00 9,9 4,8 8,5 5,0 5,6 9,2 29 16 46 25 SSW 1008,0 10 0 0,0
23.11.2017 07:00:00 9,6 4,8 7,8 4,8 5,6 9,2 26 14 43 23 SSW 1007,8 10 0 0,0
23.11.2017 06:00:00 9,4 5,0 7,5 4,6 5,6 9,2 29 16 40 22 SSW 1007,7 10 0 0,0
23.11.2017 05:00:00 8,6 5,0 7,0 4,3 5,6 9,2 26 14 37 20 SSW 1007,9 10 0 0,0
23.11.2017 04:00:00 8,4 4,8 6,4 4,2 5,6 9,2 18 10 36 19 SW 1008,3 10 0 0,0
23.11.2017 03:00:00 8,2 4,8 5,4 4,1 5,7 9,2 18 10 31 17 SW 1008,9 10 0 0,0
23.11.2017 02:00:00 8,1 4,5 5,2 4,1 5,7 9,2 16 9 29 15 SW 1008,7 10 0 0,0
23.11.2017 01:00:00 8,1 4,0 5,7 4,1 5,8 9,2 18 10 26 14 SSW 1009,0 10 0 0,0
23.11.2017 00:00:00 8,4 3,6 6,0 4,2 5,9 9,2 18 10 29 15 SSW 1009,1 10 0 0,0
22.11.2017 23:00:00 8,8 3,6 6,8 4,1 6,0 9,2 22 12 33 18 SSW 1009,3 10 0 0,0
22.11.2017 22:00:00 8,6 3,0 6,0 4,2 6,1 9,2 16 9 31 17 SSW 1009,4 10 0 0,0
22.11.2017 21:00:00 9,2 2,8 5,7 4,2 6,3 9,2 13 7 18 10 S 1009,4 10 0 0,0
22.11.2017 20:00:00 9,1 3,0 4,1 4,5 6,6 9,2 11 6 21 11 SSW 1010,1 10 0 0,0
22.11.2017 19:00:00 8,7 3,2 2,5 5,1 6,8 9,2 4 2 13 7 - 1010,5 10 0 0,0
22.11.2017 18:00:00 7,8 3,0 2,5 6,0 6,9 9,2 8 4 11 6 SSE 1010,8 10 0 0,0
22.11.2017 17:00:00 9,4 4,1 3,5 7,2 7,0 9,2 5 3 17 9 SSE 1010,8 10 37 0,0
22.11.2017 16:00:00 11,1 4,7 8,9 8,3 6,8 9,2 8 4 18 10 SSW 1011,3 10 60 0,0
22.11.2017 15:00:00 12,0 4,5 10,8 9,1 6,6 9,2 13 7 24 13 S 1011,5 10 60 0,0
22.11.2017 14:00:00 11,6 4,6 12,7 8,3 6,3 9,2 16 9 27 14 WSW 1012,2 10 60 0,0
22.11.2017 13:00:00 10,5 4,6 9,3 8,0 6,0 9,2 15 8 25 13 SSW 1012,9 10 60 0,0
22.11.2017 12:00:00 8,8 4,1 10,0 7,2 5,8 9,2 16 9 26 14 SW 1013,6 10 60 0,0
22.11.2017 11:00:00 7,6 4,1 9,1 5,6 5,7 9,2 15 8 24 13 SW 1014,6 10 60 0,0
22.11.2017 10:00:00 6,0 3,4 5,5 4,3 5,7 9,2 18 10 26 14 WSW 1014,6 10 60 0,0
22.11.2017 09:00:00 4,2 2,8 2,3 4,0 5,9 9,2 13 7 22 12 WSW 1014,7 10 37 0,0
22.11.2017 08:00:00 4,1 3,0 2,0 4,6 6,0 9,2 9 5 22 12 SW 1014,5 10 0 0,0
22.11.2017 07:00:00 5,2 4,1 4,2 5,0 6,0 9,2 11 6 24 13 SW 1014,3 10 0 0,0
22.11.2017 06:00:00 5,3 4,5 4,5 5,1 6,1 9,2 22 12 31 17 SW 1014,6 10 0 0,0
22.11.2017 05:00:00 5,6 4,5 4,9 5,5 6,1 9,2 22 12 29 15 SSW 1014,9 10 0 0,0
22.11.2017 04:00:00 5,9 4,6 5,5 5,5 6,1 9,2 18 10 26 14 SW 1015,4 10 0 0,0
22.11.2017 03:00:00 5,9 4,5 5,5 5,7 6,1 9,2 18 10 31 17 SSW 1015,6 10 0 0,0
22.11.2017 02:00:00 5,9 4,5 5,6 5,8 6,1 9,2 18 10 26 14 SW 1015,8 10 0 0,0
22.11.2017 01:00:00 6,0 4,9 5,9 5,9 6,1 9,2 18 10 27 15 SSW 1016,0 10 0 0,0
22.11.2017 00:00:00 6,6 5,7 6,3 5,9 6,0 9,3 18 10 26 14 SW 1016,0 10 0 0,0
21.11.2017 23:00:00 6,8 5,7 6,6 5,9 6,0 9,3 18 10 28 15 SW 1016,1 10 0 0,0
21.11.2017 22:00:00 6,6 5,6 6,3 5,8 6,0 9,3 16 9 29 16 WSW 1016,4 10 0 0,0
21.11.2017 21:00:00 6,5 5,2 6,2 5,7 6,0 9,3 15 8 24 13 SW 1016,6 10 0 0,0
21.11.2017 20:00:00 6,5 5,1 6,1 5,7 6,0 9,3 16 9 26 14 WSW 1016,9 10 0 0,0
21.11.2017 19:00:00 6,3 5,2 5,9 5,8 5,9 9,3 15 8 25 14 WSW 1017,0 10 0 0,0
21.11.2017 18:00:00 6,3 5,0 6,0 5,8 5,9 9,3 18 10 35 19 WSW 1017,3 10 0 0,0
21.11.2017 17:00:00 6,3 5,2 6,1 5,9 5,9 9,3 16 9 26 14 SW 1016,8 10 0 0,0
21.11.2017 16:00:00 6,0 5,2 6,0 5,9 5,8 9,3 18 10 26 14 SW 1017,1 8 0 0,0
21.11.2017 15:00:00 5,7 5,1 5,9 5,9 5,7 9,3 18 10 29 16 SW 1017,6 5 0 0,0
21.11.2017 14:00:00 5,7 5,2 5,9 5,9 5,7 9,3 18 10 35 19 SW 1017,8 5 0 0,0
21.11.2017 13:00:00 5,7 5,3 5,9 5,7 5,6 9,3 24 13 35 19 SW 1018,1 3,0 0 0,0
21.11.2017 12:00:00 5,5 5,2 5,8 5,6 5,5 9,3 24 13 38 20 SW 1018,7 3,0 0 0,0
21.11.2017 11:00:00 5,4 5,0 5,6 5,4 5,5 9,3 26 14 39 21 SW 1018,9 3,0 0 0,0
21.11.2017 10:00:00 5,3 4,9 5,3 5,3 5,4 9,3 24 13 38 21 SW 1018,7 6 0 0,7
21.11.2017 09:00:00 5,4 5,0 5,3 5,2 5,4 9,4 18 10 35 19 SW 1018,7 2,5 0 1,7
21.11.2017 08:00:00 5,6 5,1 5,4 5,1 5,3 9,4 21 11 33 18 SW 1018,2 4,0 0 1,6
21.11.2017 07:00:00 5,7 5,2 5,6 5,0 5,2 9,4 21 11 29 16 SW 1017,9 2,5 0 1,6
21.11.2017 06:00:00 5,6 5,2 5,5 4,9 5,2 9,4 18 10 35 19 SW 1017,9 2,0 0 1,6
21.11.2017 05:00:00 5,4 5,0 5,3 4,8 5,1 9,4 22 12 31 17 SW 1017,9 2,5 0 0,3
21.11.2017 04:00:00 5,3 4,9 5,2 4,7 5,0 9,4 22 12 33 18 SW 1017,9 2,0 0 0,3
21.11.2017 03:00:00 5,2 4,9 5,1 4,6 5,0 9,4 22 12 36 20 SW 1018,3 2,2 0 0,1
21.11.2017 02:00:00 5,1 4,7 5,0 4,4 4,9 9,4 29 16 39 21 WSW 1018,2 3,7 0 0,1
21.11.2017 01:00:00 4,6 4,2 4,5 4,2 4,9 9,4 24 13 42 23 WSW 1018,4 6 0 0,1
21.11.2017 00:00:00 4,3 3,8 4,1 4,1 4,9 9,4 24 13 38 21 SW 1018,4 6 0 3,7
20.11.2017 23:00:00 4,1 3,6 4,0 4,1 4,8 9,4 26 14 41 22 WSW 1019,5 3,0 0 0,3
20.11.2017 22:00:00 4,0 3,5 3,9 4,0 4,8 9,4 26 14 36 20 SW 1018,6 4,5 0 0,9
20.11.2017 21:00:00 4,0 3,4 3,8 3,9 4,7 9,4 26 14 39 21 SW 1019,1 2,5 0 0,2
20.11.2017 20:00:00 3,8 3,1 3,6 3,8 4,7 9,4 26 14 35 19 SW 1018,7 6 0 0,0
20.11.2017 19:00:00 3,4 2,9 3,3 3,7 4,7 9,4 24 13 38 21 SSW 1019,2 6 0 0,0
20.11.2017 18:00:00 3,4 2,7 3,2 3,7 4,7 9,4 24 13 37 20 SW 1019,9 7 0 0,7
20.11.2017 17:00:00 3,0 2,4 2,9 3,7 4,6 9,5 24 13 37 20 SW 1020,3 3,0 0 0,2
20.11.2017 16:00:00 2,8 1,7 2,6 3,8 4,6 9,5 24 13 32 17 SSW 1020,7 10 0 0,0
20.11.2017 15:00:00 2,9 0,8 3,0 4,0 4,4 9,5 16 9 26 14 SW 1021,5 10 0 0,0
20.11.2017 14:00:00 2,8 0,3 3,3 3,9 4,3 9,5 13 7 24 13 SSW 1022,2 10 0 0,0
20.11.2017 13:00:00 2,1 0,2 2,9 3,4 4,1 9,5 13 7 26 14 SSW 1022,8 10 0 0,0
20.11.2017 12:00:00 1,3 0,0 2,5 2,7 4,0 9,5 16 9 24 13 SW 1023,9 10 0 0,0
20.11.2017 11:00:00 0,7 -0,5 1,2 1,9 4,0 9,5 11 6 18 10 SW 1024,8 8 0 0,0
20.11.2017 10:00:00 0,4 -0,5 0,7 1,6 4,1 9,5 11 6 16 8 SW 1025,0 6 0 0,0
20.11.2017 09:00:00 0,1 -0,7 -0,1 1,6 4,2 9,5 9 5 16 8 SW 1025,0 6 0 0,0
20.11.2017 08:00:00 0,0 -0,7 -0,3 1,6 4,2 9,5 8 4 11 6 SW 1024,7 5 0 0,0
20.11.2017 07:00:00 -0,2 -0,9 -0,4 1,6 4,3 9,5 8 4 13 7 SW 1024,8 9 0 0,0
20.11.2017 06:00:00 -0,4 -1,0 -0,9 1,6 4,4 9,5 5 3 8 4 S 1024,6 9 0 0,0
20.11.2017 05:00:00 -0,4 -0,9 -0,7 1,7 4,5 9,5 4 2 9 5 WSW 1025,1 10 0 0,0
20.11.2017 04:00:00 -0,4 -1,0 -1,9 1,7 4,6 9,5 8 4 13 7 WSW 1025,3 10 0 0,0
20.11.2017 03:00:00 -0,6 -1,1 -1,5 1,8 4,8 9,5 4 2 11 6 - 1025,2 7 0 0,0
20.11.2017 02:00:00 -0,6 -1,2 -2,3 2,0 4,9 9,5 11 6 13 7 SW 1025,5 10 0 0,0
20.11.2017 01:00:00 -0,1 -1,0 -2,9 2,1 5,1 9,5 5 3 11 6 S 1025,7 10 0 0,0
20.11.2017 00:00:00 0,6 -0,7 -2,3 2,3 5,3 9,5 9 5 13 7 WSW 1025,7 10 0 0,0
19.11.2017 23:00:00 1,6 -0,3 -1,1 2,8 5,5 9,5 9 5 18 10 W 1025,4 10 0 0,0
19.11.2017 22:00:00 2,2 -0,3 0,2 3,4 5,6 9,5 13 7 21 11 W 1025,1 10 0 0,0
19.11.2017 21:00:00 3,6 0,1 2,4 4,1 5,7 9,5 18 10 26 14 W 1024,6 10 0 0,0
19.11.2017 20:00:00 4,2 0,2 3,4 4,3 5,9 9,5 18 10 29 16 W 1024,1 10 0 0,0
19.11.2017 19:00:00 4,4 0,4 2,7 4,7 5,9 9,5 18 10 29 16 W 1023,1 10 0 0,0
19.11.2017 18:00:00 5,1 0,4 4,0 5,0 6,0 9,6 16 9 22 12 W 1022,5 10 0 0,0
19.11.2017 17:00:00 5,4 0,6 4,6 5,4 6,0 9,6 15 8 21 11 WSW 1022,2 10 0 0,0
19.11.2017 16:00:00 5,8 0,0 5,4 5,8 6,0 9,6 15 8 23 13 W 1021,7 10 5 0,0
19.11.2017 15:00:00 5,8 -0,1 5,9 6,1 5,9 9,6 21 11 34 18 W 1021,5 10 1 0,0
19.11.2017 14:00:00 5,7 0,0 5,9 6,4 5,8 9,6 21 11 35 19 W 1021,4 10 23 0,0
19.11.2017 13:00:00 6,0 0,4 6,3 6,1 5,6 9,6 21 11 35 19 WNW 1021,1 10 26 0,0
19.11.2017 12:00:00 5,4 1,2 6,2 6,5 5,3 9,6 15 8 26 14 W 1021,1 10 46 0,0
19.11.2017 11:00:00 5,0 1,2 7,9 5,0 5,2 9,6 15 8 21 11 W 1020,9 10 60 0,0
19.11.2017 10:00:00 3,9 1,7 5,1 3,3 5,3 9,6 13 7 16 9 WNW 1020,6 10 50 0,0
19.11.2017 09:00:00 2,1 0,7 0,4 3,1 5,4 9,6 9 5 22 12 WNW 1020,2 10 0 0,0
19.11.2017 08:00:00 2,2 0,9 0,7 3,5 5,5 9,6 16 9 24 13 WNW 1019,2 10 0 0,0
19.11.2017 07:00:00 3,7 2,8 2,3 4,3 5,5 9,6 15 8 44 24 WNW 1018,2 10 0 0,3
19.11.2017 06:00:00 4,9 4,1 4,6 4,6 5,5 9,6 22 12 31 17 W 1017,3 10 0 0,0
19.11.2017 05:00:00 4,7 4,3 4,6 4,4 5,5 9,6 18 10 35 19 W 1017,2 10 0 0,4
19.11.2017 04:00:00 4,0 3,5 3,9 4,2 5,5 9,6 18 10 28 15 WSW 1017,2 3,5 0 0,7
19.11.2017 03:00:00 3,4 2,8 3,3 4,2 5,5 9,6 21 11 38 21 SW 1017,7 8 0 0,3
19.11.2017 02:00:00 3,2 2,5 3,2 4,1 5,6 9,6 24 13 38 21 SW 1018,4 10 0 0,0

tt = Température de l'air
td = dewpoint
tt 5cm = Température de l'air 5cm
tt -5cm = Température de l'air -5cm
tt -20cm = Température de l'air -20cm
tt -100cm = Température de l'air -100cm
ff = Vitesse du vent
fx = gusts
dd = Direction du vent
ppp = reduced air pressure
vv = visibility
sd = Ensoleillement
rr = Quantités de précipitations

stations d'obs. à proximité